Starlink 3306

operational
NORAD ID: 50163 Int'l Des: 2021-125 Owner: SPXS Country: US Constellation: starlink
LEOCIRCULAR

关于 Starlink 3306

正在加载描述...

实时位置

正在加载3D地球...

即将过境

高度历史

Altitude vs Time

uPlot chart will show altitude changes over time

两行轨道根数

1 50163U 21125H 25258.41769320 .00000493 00000-0 49075-4 0 9995
2 50163 53.2154 305.9404 0001074 88.9153 271.1962 15.08839719210279
Epoch: Sep 15, 2025 • Age: 29 hours

当前状态

高度 541.1 km
速度 7.60 km/s
星下点 30.75°N, 130.51°W
发射日期 Dec 18, 2021
运行时间 3.7 years
类型 internet

技术详情

分类 Payload
质量 290.00 kg
干质量 270.00 kg
总质量 290.00 kg
长度 0.20 m
直径 2.80 m
跨度 9.00 m
形状 Box + pan
制造商 SPXS
平台类型 Starlink
阶段状态 In Orbit
所有者/国家 SPXS/US

大型星座

Loading constellations...